Find Starlink 34073

NORAD ID: 64606 Int'l Des: 2025-137 Owner: SPXS Country: US Constellation: starlink operational
LEOCIRCULAR

当前视图

正在加载3D地球...

关于 Starlink 34073

正在加载描述...

即将过境

Passes for default location (London). Set your location on the main map for personalized predictions.

高度历史

Loading altitude history...

两行轨道根数

1 64606U 25137N 26149.84983640 .00028301 00000-0 96345-3 0 9998
2 64606 53.1605 318.0569 0000879 119.5473 240.5615 15.30219813 53048
Epoch: May 29, 2026 • Age: 17 hours

当前状态

高度 482.3 km
速度 7.62 km/s
星下点 -23.38°S, 154.77°W
发射日期 Jun 25, 2025
运行时间 0.9 years
类型 internet

技术详情

分类 Payload
质量 575.00 kg
干质量 530.00 kg
总质量 575.00 kg
长度 0.30 m
直径 4.10 m
跨度 29.00 m
形状 Box + pan
制造商 SPXS
平台类型 Starlink V2MO
阶段状态 In Orbit
所有者/国家 SPXS/US

Most Searched